Location: Pasadena, ca
(34.1243°N, 118.1037°W)
Time: 16:42:15
(UTC-08:00)

Vanguard 1 Rocket - Visible Passes

Search period start: 16 December 2017 00:00
Search period end: 26 December 2017 00:00
Orbit: 656 x 4222 km, 34.3° (Epoch: 15 December)

Date Brightness Start Highest point End Pass type
(mag) Time Alt. Az. Time Alt. Az. Time Alt. Az.
16 Dec11.700:46:45SSE00:46:45SSE00:06:23Wvisible
16 Dec 9.5 17:58:50 10° W 18:09:23 89° N 18:24:46 22° E visible
16 Dec 10.0 20:24:31 10° WNW 20:39:57 76° SSW 20:42:04 72° SSE visible
16 Dec 11.1 22:52:36 10° W 23:38:53 - SSE 22:59:23 27° W visible
17 Dec 9.1 16:48:13 10° WSW 16:56:44 87° S 17:14:20 10° E visible
17 Dec 9.7 19:13:11 10° W 19:25:58 85° SSW 19:35:09 45° ESE visible
17 Dec 10.5 21:39:46 10° WNW 21:52:28 51° WSW 21:52:28 51° WSW visible
18 Dec11.700:48:09S00:48:09S00:09:47Wvisible
18 Dec 9.4 18:02:16 10° W 18:12:38 90° N 18:28:18 20° E visible
18 Dec 10.1 20:27:52 10° WNW 20:42:52 69° SSW 20:45:39 65° S visible
18 Dec 11.2 22:56:23 10° W 23:40:05 - SSE 23:02:58 24° W visible
19 Dec 9.1 16:51:39 10° W 17:00:02 90° NNW 17:17:19 10° E visible
19 Dec 9.7 19:16:35 10° W 19:29:03 79° SSW 19:38:56 41° ESE visible
19 Dec 10.6 21:43:16 10° W 21:56:16 46° SW 21:56:16 46° SW visible
20 Dec11.800:49:05S00:49:05S00:13:38Wvisible
20 Dec 9.4 18:05:43 10° W 18:15:53 87° S 18:32:23 18° ESE visible
20 Dec 10.2 20:31:16 10° WNW 20:45:46 61° SSW 20:49:44 55° S visible
20 Dec 11.3 23:00:35 10° W 23:40:46 - SSE 23:07:06 22° WSW visible
21 Dec 9.0 16:55:07 10° W 17:03:21 89° N 17:20:20 10° E visible
21 Dec 9.8 19:19:58 10° W 19:32:08 72° SSW 19:43:23 35° SE visible
21 Dec 10.7 21:46:58 10° W 22:00:45 40° SW 22:00:45 40° SW visible
22 Dec11.900:49:25S00:49:25S00:18:09Wvisible
22 Dec 9.4 18:09:08 10° W 18:19:06 82° SSW 18:37:15 14° ESE visible
22 Dec 10.3 20:34:47 10° W 20:48:41 52° SSW 20:54:39 44° S visible
22 Dec 11.4 23:05:29 10° W 23:40:41 - S 23:12:04 19° WSW visible
23 Dec 9.0 16:58:35 10° W 17:06:40 90° S 17:23:19 10° E visible
23 Dec 9.9 19:23:24 10° W 19:35:12 64° SSW 19:48:53 27° SE visible
23 Dec 11.0 21:50:59 10° W 22:05:26 32° SW 22:06:20 32° SSW visible
24 Dec 9.4 18:12:34 10° W 18:22:17 75° SSW 18:41:54 10° ESE visible
24 Dec 10.5 20:38:25 10° W 20:51:39 43° SSW 21:01:06 31° SSE visible
24 Dec 11.6 23:11:43 10° WSW 23:39:13 - S 23:18:38 15° SW visible
25 Dec 9.0 17:02:03 10° W 17:09:58 85° S 17:26:15 10° ESE visible
25 Dec 10.0 19:26:55 10° W 19:38:17 54° SSW 19:56:48 14° SE visible
25 Dec 11.2 21:55:30 10° W 22:08:22 25° SW 22:14:29 22° SSW visible
